Location: Long Barn
(38.0930°N, 120.1344°W)
Time: 23:56:20
(UTC+00:00)

Cosmos 2221 Rocket - Pass Details

Date: 05 August 2024
Orbit: 618 x 644 km, 82.5° (Epoch: 08 September)

Event Time Altitude Azimuth Distance (km) Brightness Sun altitude
Rises 12:30:34 0° 355° (N) 2,961 7.4 -7.4°
Reaches altitude 10° 12:32:51 10° 358° (N) 2,048 6.6 -7.0°
Maximum altitude 12:37:23 69° 81° (E) 693 4.1 -6.2°
Drops below altitude 10° 12:41:53 10° 166° (SSE) 2,031 6.1 -5.4°
Sets 12:44:07 0° 168° (SSE) 2,934 6.9 -5.0°
